Terminal Aerodrome Forecast
Issued by NWS

Home | Current Version | Previous Version | Text Only | Print | Product List | Glossary On
Versions: 1 2 3 4 5 6 7 8 9 10 11 12 13 14 15
000
FTUS45 KLKN 220533
TAFWMC
TAF
KWMC 220533Z 2206/2306 21010KT 4SM -SN BKN030
      TEMPO 2206/2208 1 1/2SM -SN OVC020
     FM221000 18009KT P6SM VCSH SCT025 OVC035
     FM221800 25007KT P6SM FEW030 BKN040=

USA.gov is the U.S. government's official web portal to all federal, state and local government web resources and services.